Probability
0 0 0 0 0 0 0 0 0 0 0 0 0 0 0 0 0 0 0 0 0 0 0 0 0 0 0 0 0 0 0 0 0 0 0 0 0 0 0 0 0 0 0
0 0 0 0 0 0 0 0 0 0 0 0 0 0 0 0 0 0 0 0 0 0 0 0 0 0 0 0 0 0 0 0 0 0 0 0 0 0 0 0 0 0 0
0 0 0 0 0 0 0 0 0 0 0 0 0 0 0 0 0 0 0 0 0 0 0 0 0 0 0 0 0 0 0 0 0 0 0 0 0 0 0 0 0 0 0
0 0 0 0 0 0 0 0 0 0 0 0 0 0 0 0 0 0 0 0 0 0 0 0 0 0 0 0 0 0 0 0 0 0 0 0 0 0 0 0 0 0 0
0 0 0 0 0 0 0 0 0 0 0 0 0 0 0 0 0 0 0 0 0 0 0 0 0 0 0 0 0 0 0 0 0 0 0 0 0 0 0 0 0 0 0
0 0 0 0 0 0 0 0 0 0 0 0 0 0 0 0 0 0 0 0 0 0 0 0 0 0 0 0 0 0 0 0 0 0 0 0 0 0 0 0 0 0 0
0 0 0 0 0 0 0 0 0 0 0 0 0 0 0 0 0 0 0 0 0 0 0 0 0 0 0 0 0 0 0 0 0 0 0 0 0 0 0 0 0 0 0
0 0 0 0 0 0 0 0 0 0 0 0 0 0 0 0 0 0 0 0 0 0 0 0 0 0 0 0 0 0 0 0 0 0 0 0 0 0 0 0 0 0 0
0 0 0 0 0 0 0 0 0 0 0 0 0 0 0 0 0 0 0 0 0 0 0 0 0 0 0 0 0 0 0 0 0 0 0 0 0 0 0 0 0 0 0
0 0 0 0 0 0 0 0 0 0 0 0 0 0 0 0 0 0 0 0 0 0 0 0 0 0 0 0 0 0 0 0 0 0 0 0 0 0 0 0 0 0 0
0 0 0 0 0 0 0 0 0 0 0 0 0 0 0 0 0 0 0 0 0 0 0 0 0 0 0 0 0 0 0 0 0 0 0 0 0 0 0 0 0 0 0
0 0 0 0 0 0 0 0 0 0 0 0 0 0 0 0 0 0 0 0 0 0 0 0 0 0 0 0 0 0 0 0 0 0 0 0 0 0 0 0 0 0 0
0 0 0 0 0 0 0 0 0 0 0 0 0 0 0 0 0 0 0 0 0 0 0 0 0 0 0 0 0 0 0 0 0 0 0 0 0 0 0 0 0 0 0
0 0 0 0 0 0 0 0 0 0 0 0 0 0 0 0 0 0 0 0 0 0 0 0 0 0 0 0 0 0 0 0 0 0 0 0 0 0 0 0 0 0 0
0 0 0 0 0 0 0 0 0 0 0 0 0 0 0 0 0 0 0 0 0 0 0 0 0 0 0 0 0 0 0 0 0 0 0 0 0 0 0 0 0 0 0
0 0 0 0 0 0 0 0 0 0 0 0 0 0 0 0 0 0 0 0 0 0 0 0 0 0 0 0 0 0 0 0 0 0 0 0 0 0 0 0 0 0 0
0 0 0 0 0 0 0 0 0 0 0 0 0 0 0 0 0 0 0 0 0 0 0 0 0 0 0 0 0 0 0 0 0 0 0 0 0 0 0 0 0 0 0
0 0 0 0 0 0 0 0 0 0 0 0 0 0 0 0 0 0 0 0 0 0 0 0 0 0 0 0 0 0 0 0 0 0 0 0 0 0 0 0 0 0 0
0 0 0 0 0 0 0 0 0 0 0 0 0 0 0 0 0 0 0 0 0 0 0 0 0 0 0 0 0 0 0 0 0 0 0 0 0 0 0 0 0 0 0
0 0 0 0 0 0 0 0 0 0 0 0 0 0 0 0 0 0 0 0 0 0 0 0 0 0 0 0 0 0 0 0 0 0 0 0 0 0 0 0 0 0 0
0 0 0 0 0 0 0 0 0 0 0 0 0 0 0 0 0 0 0 0 0 0 0 0 0 0 0 0 0 0 0 0 0 0 0 0 0 0 0 0 0 0 0
0 0 0 0 0 0 0 0 0 0 0 0 0 0 0 0 0 0 0 0 0 0 0 0 0 0 0 0 0 0 0 0 0 0 0 0 0 0 0 0 0 0 0
0 0 0 0 0 0 0 0 0 0 0 0 0 0 0 0 0 0 0 0 0 0 0 0 0 0 0 0 0 0 0 0 0 0 0 0 0 0 0 0 0 0 0
0 0 0 0 0 0 0 0 0 0 0 0 0 0 0 0 0 0 0 0 0 0 0 0 0 0 0 0 0 0 0 0 0 0 0 0 0 0 0 0 0 0 0
0 0 0 0 0 0 0 0 0 0 0 0 0 0 0 0 0 0 0 0 0 0 0 0 0 0 0 0 0 0 0 0 0 0 0 0 0 0 0 0 0 0 0
0 0 0 0 0 0 0 0 0 0 0 0 0 0 0 0 0 0 0 0 0 0 0 0 0 0 0 0 0 0 0 0 0 0 0 0 0 0 0 0 0 0 0
Wind_Speed
11 11 12 13 14 15 14 15 14 13 13 13 13 13 13 14 13 13 14 13 14 14 13 13 14 13 10 9 9 9 10 10 14 10 5 3 6 6 5 6 6 7 8
9 10 11 11 12 13 14 14 13 13 13 13 12 13 13 13 13 13 14 13 14 14 13 13 14 11 13 10 9 10 10 10 11 13 6 3 4 4 4 5 5 5 6
7 8 9 10 11 12 13 13 12 12 12 12 12 13 13 12 12 13 13 13 13 13 13 13 13 12 13 10 10 10 8 8 9 9 7 2 2 2 2 3 4 4 6
6 7 8 9 9 10 10 10 10 11 11 11 11 12 11 11 11 12 12 12 12 12 11 12 12 12 12 11 10 10 8 8 7 7 6 3 2 2 2 3 4 5 5
6 6 7 7 7 7 7 8 8 8 9 9 9 9 9 9 9 10 10 10 11 11 10 10 10 10 11 9 7 7 7 7 6 5 5 3 3 3 4 4 4 3 4
5 6 5 5 5 5 5 5 6 6 7 7 8 8 8 6 7 10 9 9 9 9 9 8 7 8 8 9 9 9 8 7 7 6 5 5 5 5 4 4 4 3 4
5 4 4 4 4 4 4 4 5 6 6 6 7 6 7 6 6 7 9 7 7 7 7 6 4 4 5 5 6 7 7 8 8 6 6 6 4 5 5 5 5 4 3
5 4 3 4 4 3 3 4 5 4 4 5 5 5 5 4 5 6 7 7 6 5 5 5 5 4 4 4 4 3 3 3 3 4 4 4 3 4 6 5 4 3 2
5 4 4 4 4 4 4 5 4 3 4 3 3 4 4 3 3 5 6 4 4 3 2 2 3 3 4 5 4 4 2 1 1 0 1 1 3 5 6 5 5 3 2
5 5 4 4 4 5 5 4 2 3 3 2 2 2 3 2 2 4 5 3 3 3 2 1 2 3 3 5 4 3 3 2 2 1 2 3 2 5 7 5 5 4 2
5 4 4 4 4 4 3 2 2 3 3 3 2 1 1 1 2 3 5 3 3 3 2 2 1 3 3 4 4 3 3 3 2 3 2 2 2 2 2 2 1 2 2
5 4 4 3 3 2 2 2 3 3 3 3 3 2 1 1 1 2 4 4 3 3 3 2 2 3 4 4 3 3 5 4 3 3 2 2 1 1 2 2 2 2 1
4 4 4 3 2 2 3 3 3 3 4 3 3 3 2 1 1 2 3 3 4 3 2 4 4 5 5 4 5 6 4 3 3 2 2 1 1 2 2 2 3 3 3
5 4 3 2 2 1 1 2 3 3 4 4 4 3 2 2 2 2 2 2 3 4 3 4 6 7 6 5 4 4 2 2 2 2 2 2 2 2 1 1 1 1 1
5 4 3 2 2 1 1 1 1 1 2 3 3 3 3 3 3 4 4 3 3 4 4 3 3 3 3 3 3 3 2 2 2 2 2 2 2 1 1 1 1 1 1
4 4 3 2 2 1 1 1 3 2 3 2 2 3 1 2 5 6 6 6 7 8 5 3 3 3 2 2 2 2 2 2 1 1 2 2 2 2 1 1 1 2 2
4 4 3 3 2 2 2 2 1 2 4 4 4 3 3 5 5 6 6 7 8 8 4 3 3 3 2 2 2 2 1 1 1 1 1 1 1 2 2 2 2 2 2
4 3 3 3 2 2 2 2 2 2 1 1 3 4 4 5 5 5 6 7 4 3 2 3 3 2 2 2 2 2 2 1 1 1 1 1 1 1 2 2 2 3 3
4 3 2 2 2 1 1 0 1 2 1 1 2 3 4 4 5 5 5 3 3 3 2 3 3 2 2 2 2 2 2 1 1 1 1 1 1 2 2 2 2 3 3
3 4 3 2 1 1 1 1 1 1 2 1 1 1 1 2 2 2 2 3 3 3 2 2 2 2 2 1 1 1 1 1 1 1 1 1 1 1 2 3 3 3 3
3 3 4 2 2 2 1 1 1 1 1 1 1 2 3 2 2 2 2 2 2 2 2 2 2 2 1 1 1 1 1 1 1 1 1 1 1 1 2 2 3 3 3
3 3 3 2 2 2 2 2 2 2 2 2 2 2 4 3 2 2 2 3 2 2 2 1 1 1 1 1 0 0 1 1 1 1 0 1 1 1 2 2 2 3 3
3 3 3 3 2 3 2 2 2 2 2 2 2 2 2 2 2 2 2 2 2 2 2 2 1 1 2 1 1 0 1 1 1 1 1 1 1 2 2 2 3 3 3
4 3 3 3 3 3 2 2 2 2 2 2 2 1 1 2 2 2 2 1 2 2 2 1 1 1 1 1 1 1 1 1 1 1 2 2 2 2 2 2 3 3 3
3 3 3 2 2 2 2 2 2 2 2 1 1 1 1 1 1 1 1 1 1 1 1 1 0 0 0 1 1 2 2 3 3 2 2 2 3 3 3 3 3 3 3
4 3 3 2 2 2 2 2 2 2 1 1 1 1 1 1 1 1 1 1 1 1 1 1 1 1 2 2 3 3 4 4 4 4 3 3 3 3 3 3 4 4 4
Wind_Direction
240 235 231 230 229 229 231 232 232 232 228 226 223 222 222 222 221 222 225 225 228 231 229 230 234 233 235 234 232 233 235 239 257 264 254 237 207 215 212 215 217 219 220
246 240 237 235 233 231 231 232 231 231 229 226 223 222 222 223 222 222 226 227 229 231 232 232 236 234 236 236 234 235 237 236 247 261 252 219 213 207 203 206 207 212 221
254 246 240 236 234 234 234 234 231 231 230 226 223 223 224 223 223 223 226 227 229 231 232 234 235 232 236 235 235 238 238 237 239 253 256 205 177 154 173 203 207 210 216
257 248 243 238 236 237 237 235 232 230 230 227 225 226 226 225 225 225 226 228 230 232 232 234 235 233 235 235 235 237 236 236 235 242 248 215 178 156 174 199 211 208 212
258 252 250 246 242 239 237 235 231 228 229 227 226 225 225 226 227 225 224 227 229 232 232 233 234 234 234 232 231 231 229 233 231 232 237 220 197 180 203 191 208 195 207
261 259 259 250 242 237 236 233 227 226 225 222 222 221 224 225 220 216 220 226 227 230 233 232 231 228 232 231 232 233 230 231 231 228 231 228 221 205 186 180 179 176 214
265 264 258 248 243 242 235 226 224 223 220 218 219 215 220 225 216 211 211 222 227 230 230 228 224 220 222 227 230 234 238 241 235 235 237 232 217 195 181 188 192 197 203
272 268 261 252 248 242 229 231 232 219 212 218 215 212 216 224 210 208 206 218 227 229 227 221 218 218 213 213 217 220 227 238 236 232 236 237 224 191 185 184 171 141 85
284 276 264 247 239 230 229 231 228 212 212 216 209 201 206 218 198 201 198 203 208 213 211 205 205 210 212 204 200 206 212 233 8 197 204 194 181 167 154 135 143 156 191
288 285 282 262 239 232 229 224 215 203 205 183 191 198 203 212 178 189 195 194 195 189 169 170 190 195 193 187 187 189 208 208 169 117 88 84 113 152 161 166 168 173 169
301 294 286 271 252 245 234 207 185 182 176 176 178 192 203 215 194 192 190 191 190 178 174 179 183 176 179 182 176 183 198 166 156 144 118 101 95 113 137 130 142 168 178
304 294 287 276 262 239 212 200 178 176 179 186 184 199 219 224 210 192 179 179 169 171 176 171 161 155 153 153 147 135 135 128 126 129 129 132 135 134 114 106 100 77 56
302 293 292 288 274 237 210 201 189 184 192 198 196 204 210 201 182 156 156 157 156 152 145 144 138 134 126 112 108 117 120 120 128 138 149 135 98 102 105 97 88 82 66
297 296 292 282 279 268 227 211 208 202 199 195 199 201 196 192 192 174 157 147 142 131 124 119 118 115 107 100 101 99 92 103 117 129 117 102 100 116 129 131 143 143 129
300 296 293 283 269 271 262 240 224 252 208 194 197 188 190 200 186 163 158 157 154 144 130 116 111 116 116 111 101 95 90 95 96 99 120 131 142 149 149 141 156 176 205
302 303 298 291 284 258 232 58 65 81 81 117 142 157 149 139 145 159 158 147 145 145 133 137 138 137 139 139 135 122 106 100 95 117 138 154 168 174 168 163 183 207 223
301 299 298 292 277 259 237 209 184 72 70 73 90 117 126 127 137 150 151 143 142 145 133 137 137 136 130 128 126 117 105 96 95 126 144 154 167 179 182 189 196 209 223
312 305 298 291 281 263 246 228 197 181 171 58 53 65 91 107 114 130 143 139 130 125 120 128 127 124 121 119 114 102 103 112 121 129 136 147 171 190 201 209 213 221 229
320 314 313 312 310 299 275 208 155 142 131 95 68 50 48 79 88 89 112 110 120 117 108 107 109 113 113 115 118 121 129 139 137 137 153 173 197 210 217 222 230 228 235
332 341 339 341 347 356 19 82 99 106 107 102 83 47 42 69 81 70 65 72 93 102 103 104 99 94 98 103 113 126 137 144 151 155 176 193 213 229 230 230 232 236 238
337 349 4 14 17 21 33 49 70 86 89 83 53 46 84 95 90 82 72 62 67 79 86 93 94 97 92 96 106 131 143 149 146 163 198 216 227 237 244 246 246 245 248
342 351 1 15 23 34 43 49 59 67 72 72 54 49 68 68 70 74 70 60 50 46 44 71 87 74 61 57 88 170 178 173 162 180 214 241 252 251 249 247 251 255 254
350 359 8 15 23 37 45 48 57 65 64 58 58 59 63 69 70 71 68 59 54 49 40 44 58 49 35 23 359 304 233 231 259 253 241 244 249 253 253 250 248 252 254
354 1 10 16 23 30 31 35 45 52 58 58 50 44 46 59 66 67 64 61 57 53 47 43 50 58 23 358 345 335 310 298 294 265 246 240 245 249 251 251 255 253 254
355 1 10 15 20 25 25 27 36 42 47 51 48 41 39 42 46 42 34 37 37 38 22 358 340 307 303 302 299 297 296 294 283 263 244 236 237 240 241 247 249 252 250
358 2 7 9 10 10 14 14 17 19 23 25 29 22 11 8 2 354 352 352 350 326 311 305 287 290 295 296 288 287 281 274 261 247 235 231 232 235 233 235 238 243 246